Helicity
176 201 200 116 130 163 154 162 156 94 56 58 67 38 35 -50 -22 40 24 43 107 115 54 64 84 127 77 53 49 122 200 313 303 317 330 303 255 257 250 260 271 243 264 203
139 136 78 119 115 122 120 139 136 95 65 94 114 89 22 -17 14 5 5 17 39 71 99 92 125 153 161 121 76 43 87 193 315 309 362 307 227 238 244 258 301 344 365 248
119 92 92 71 71 75 85 93 70 68 35 42 52 48 62 52 24 -25 10 58 105 102 122 126 92 107 110 125 116 48 32 95 226 273 269 271 197 139 181 249 311 327 376 340
108 106 113 132 111 82 87 36 42 59 71 101 90 84 25 22 13 31 75 125 187 205 233 219 199 159 160 122 80 23 7 25 102 259 271 335 286 253 269 246 278 254 304 348
80 89 94 92 81 86 84 77 60 58 73 89 85 92 98 27 40 122 155 173 191 167 116 129 125 118 52 70 29 -16 -40 18 39 148 262 311 240 200 209 196 217 174 130 178
86 55 87 88 96 112 100 104 85 94 98 127 155 93 99 92 107 183 231 211 165 198 216 223 240 208 146 123 75 38 2 40 16 61 185 227 205 190 233 218 154 117 90 147
80 85 122 139 124 111 159 116 95 85 152 123 146 144 156 192 231 184 199 206 201 199 210 171 134 145 153 97 115 71 66 65 18 25 88 147 173 158 108 110 119 101 146 232
93 92 153 137 85 82 60 79 128 179 148 105 86 149 191 240 256 264 246 216 177 183 146 137 138 126 122 151 98 143 86 51 82 43 102 123 106 95 106 115 173 352 548 614
126 83 90 111 107 100 115 88 115 118 108 170 184 223 242 338 317 225 100 70 97 115 74 107 88 78 61 38 44 51 116 111 137 175 224 283 291 313 347 413 507 579 570 499
92 65 46 64 94 93 89 115 118 169 220 206 218 209 255 369 305 241 198 109 63 31 116 93 69 80 77 51 69 28 43 99 110 166 228 302 384 438 469 505 524 521 422 231
104 122 136 114 81 70 53 149 242 253 330 352 295 284 391 429 294 223 98 31 23 -25 -1 53 23 -2 37 49 32 61 78 77 109 128 143 146 195 253 327 388 379 366 281 350
102 140 137 103 13 80 86 142 172 269 304 453 469 353 383 313 214 111 32 -72 -121 -53 -65 -53 -29 -57 -43 35 26 33 45 132 184 149 191 144 165 178 203 177 224 226 235 314
145 160 119 73 118 130 179 210 225 264 292 294 333 474 184 229 101 63 -24 -103 -93 -101 -121 -95 -11 -21 -24 -30 -5 36 40 15 18 124 109 156 187 168 148 246 129 264 249 260
118 162 126 187 123 165 130 121 148 184 343 289 356 205 210 153 86 49 26 31 28 44 69 47 1 41 57 4 18 36 84 122 116 92 72 128 187 167 244 342 310 203 202 160
175 216 147 142 195 176 144 151 173 191 162 225 177 159 143 131 71 66 70 61 26 6 5 5 17 39 83 73 22 71 150 175 210 278 299 324 293 337 333 300 241 179 183 151
209 177 173 174 163 119 137 150 125 107 103 129 128 108 75 108 57 85 96 24 -0 -10 7 13 41 33 52 81 44 57 166 252 298 373 372 458 420 444 374 457 229 62 63 76
162 166 164 194 111 155 288 90 52 53 -0 18 54 24 4 37 43 64 42 7 3 13 11 15 37 27 21 88 34 14 169 275 307 328 267 231 376 396 313 310 263 108 181 144
55 28 135 194 120 237 96 123 51 3 7 55 56 28 14 13 35 48 -5 20 12 -6 5 -15 -1 8 -8 19 32 86 200 268 365 384 362 466 594 298 247 287 282 226 207 260
-15 31 150 177 113 113 128 17 -16 56 60 51 32 29 30 45 66 36 24 20 -14 -34 -30 -27 -41 -43 -34 12 89 158 254 358 444 481 522 443 491 386 355 343 300 218 250 287
88 58 173 201 207 197 111 118 145 127 73 65 -2 32 44 47 110 64 16 -7 2 -25 -8 -14 -31 -32 -23 -5 126 256 287 382 450 518 539 469 533 397 453 345 231 364 224 210
144 231 222 196 265 262 185 145 53 124 101 63 61 81 56 55 25 7 -27 -21 -18 -6 6 -11 -34 -29 8 44 155 259 292 323 407 457 489 406 427 378 319 214 191 183 153 130
207 267 284 232 323 391 184 169 199 151 91 125 91 82 45 20 4 -8 -25 -19 15 29 19 -11 -29 -25 25 101 180 258 308 293 354 319 333 292 288 226 188 179 136 105 86 105
247 278 210 325 291 252 268 209 154 114 56 -23 -79 -144 -1 34 67 66 34 44 38 41 29 -11 -31 18 84 145 212 309 272 302 300 266 248 233 220 204 136 96 71 77 91 76
351 217 292 208 403 287 200 198 177 144 111 91 60 46 62 24 10 79 58 48 56 45 21 -5 3 70 179 219 279 322 278 247 240 225 219 204 162 116 77 52 57 54 64 70
282 159 174 278 385 244 258 202 177 177 159 123 86 68 49 48 27 38 38 33 42 40 23 8 39 162 275 283 307 242 193 182 175 174 156 145 109 64 39 68 63 55 62 23
161 183 330 503 428 411 348 253 223 220 175 193 144 70 64 71 57 72 58 82 56 32 25 64 168 310 347 327 327 234 206 192 191 153 118 86 35 30 18 2 7 48 17 33
Wind_Speed
46 54 63 60 55 59 67 72 79 76 76 76 86 101 93 87 76 82 86 82 81 84 76 73 71 69 69 68 63 51 36 35 38 39 42 43 52 47 46 45 46 43 42 39
52 61 54 52 55 59 62 74 79 74 68 79 90 111 96 78 86 92 84 85 84 80 79 75 74 75 77 78 76 74 59 42 42 43 42 45 44 45 47 46 47 48 47 43
54 50 51 58 60 66 63 71 77 79 73 79 91 105 97 97 93 76 88 71 74 75 81 83 82 82 83 83 85 84 79 62 34 38 43 43 48 46 43 44 47 46 45 44
49 48 49 52 58 61 74 63 69 79 82 92 71 110 97 85 83 88 66 72 77 78 81 82 86 89 88 88 87 87 84 74 40 31 35 38 43 47 42 44 43 42 40 42
46 50 57 61 60 55 65 57 65 71 78 81 70 74 82 90 81 65 69 73 76 76 78 81 84 88 84 84 87 87 83 76 63 39 35 37 41 46 55 48 45 40 38 38
48 47 50 52 54 50 58 62 66 61 61 72 63 60 69 71 70 72 75 77 79 82 82 84 88 89 88 87 87 87 85 77 67 57 40 39 42 46 49 51 52 46 42 38
61 55 45 52 52 47 63 67 79 74 70 74 62 76 64 64 63 64 72 78 80 81 83 84 88 90 91 88 86 84 82 76 64 55 49 47 45 44 45 47 50 47 41 40
61 58 50 54 50 56 57 54 63 80 82 92 74 67 54 46 52 60 68 73 75 79 82 85 87 88 90 89 83 79 74 68 56 45 44 43 39 41 42 40 41 37 36 35
64 54 48 48 54 54 55 57 52 65 69 76 67 58 43 51 58 65 69 74 79 83 86 91 92 90 90 85 79 72 68 59 49 40 37 37 35 32 31 29 29 27 22 20
53 71 51 51 56 49 53 55 63 54 77 85 73 71 65 64 67 68 76 82 86 89 91 90 91 92 89 85 76 69 61 55 45 35 28 26 28 27 26 24 22 22 19 20
59 56 60 64 63 71 68 62 54 59 59 78 89 75 45 54 64 72 76 81 87 89 90 93 91 91 88 87 75 66 57 50 45 38 28 22 22 21 21 22 22 23 25 24
58 59 74 73 65 61 52 59 56 66 74 66 72 76 37 57 70 75 84 88 89 87 89 90 89 89 86 85 75 64 53 48 44 38 31 27 27 22 21 24 25 20 26 23
62 59 85 80 53 51 56 58 61 74 72 77 81 77 48 85 102 89 99 94 91 91 90 89 91 91 87 85 76 63 53 46 37 37 28 25 31 29 31 27 25 25 26 22
55 59 65 81 84 82 94 89 83 82 91 94 92 103 96 100 107 110 102 89 86 86 90 93 94 92 89 85 78 63 52 47 41 40 35 30 30 34 26 28 28 24 17 19
53 75 73 78 82 90 98 98 92 91 92 97 105 100 108 98 96 91 82 76 78 84 88 90 91 93 90 86 82 58 48 41 41 40 39 34 27 29 27 19 20 14 17 23
60 83 82 95 85 93 107 100 100 96 93 94 93 99 84 85 76 63 63 69 77 83 86 86 88 89 91 89 85 56 45 37 33 35 36 33 24 22 19 20 17 18 22 29
75 81 90 111 95 101 110 97 89 84 76 77 85 80 77 76 63 53 61 66 74 79 83 84 86 87 89 89 81 52 45 37 32 29 28 24 27 22 19 22 22 24 28 31
68 73 77 103 98 113 88 69 79 87 82 78 77 74 68 61 55 49 55 62 70 74 81 82 83 85 84 79 65 48 40 35 29 29 29 28 26 25 19 25 25 28 32 35
49 61 78 90 98 102 99 80 72 64 73 63 71 72 78 52 48 55 53 63 68 70 78 78 79 81 79 71 58 47 39 33 28 27 28 26 24 23 28 28 30 30 34 38
52 47 65 78 95 104 81 61 53 72 88 68 83 71 45 41 58 64 75 73 73 73 75 76 77 77 74 65 49 42 35 29 28 26 25 26 27 28 30 31 30 37 37 40
65 61 63 67 70 59 39 35 44 72 80 64 52 52 53 64 68 85 82 79 75 72 72 71 71 71 67 57 44 39 31 26 21 20 22 25 28 31 32 34 36 40 40 41
63 62 61 48 57 66 34 30 25 32 36 47 56 62 78 91 96 92 86 77 76 72 69 65 66 64 59 50 41 36 27 19 14 16 21 26 29 32 36 35 38 40 43 46
55 27 39 34 42 48 52 50 50 54 50 51 49 64 79 85 88 84 84 76 73 67 63 58 60 56 54 47 35 29 23 17 15 16 21 25 31 36 36 37 40 43 48 52
36 36 43 54 56 63 62 63 64 67 66 59 54 49 51 32 27 53 71 73 65 63 58 55 53 49 45 38 31 25 17 15 15 15 20 26 30 33 38 39 43 48 53 56
39 46 51 62 70 75 68 69 73 76 77 73 68 57 45 45 39 35 31 61 58 53 50 47 44 37 34 28 27 20 15 15 16 18 23 27 32 36 37 43 48 52 56 58
42 56 61 77 82 79 82 87 97 85 65 66 67 72 55 44 42 32 38 43 49 45 40 38 34 29 27 24 22 16 16 18 19 22 25 29 32 36 39 42 48 54 56 61
Wind_Direction
316 308 305 308 310 310 310 309 307 310 312 310 306 302 308 310 311 311 308 308 309 307 310 309 310 310 309 306 305 300 288 244 262 255 245 241 230 237 253 254 254 255 260 263
312 307 312 316 314 312 312 310 309 313 314 311 309 301 304 309 307 307 308 310 309 309 309 310 308 308 307 306 306 302 298 284 264 255 247 254 245 250 255 260 256 255 256 265
309 313 319 316 315 313 314 312 312 312 315 312 310 302 306 305 306 308 308 314 314 313 310 309 308 306 305 306 306 302 299 298 262 246 265 267 271 269 264 248 257 258 256 257
313 320 320 321 317 317 312 317 315 314 315 311 322 306 311 314 311 309 317 317 315 315 314 313 310 307 304 302 305 303 298 295 284 258 250 251 256 259 258 268 269 269 259 253
324 324 321 317 317 321 316 325 320 318 314 314 318 312 315 314 316 324 325 324 323 322 321 318 316 313 309 308 305 303 301 292 290 273 250 255 257 267 276 277 274 271 266 254
327 332 329 326 328 329 328 325 323 323 320 314 326 320 321 327 325 322 324 325 326 324 322 321 320 318 314 312 308 305 302 294 291 283 268 262 266 271 274 276 277 276 274 262
323 326 333 341 331 335 332 328 318 316 316 312 324 319 316 326 332 332 329 327 328 329 328 327 325 323 319 315 310 308 307 298 294 290 280 276 276 276 278 277 275 276 273 268
323 321 334 337 337 331 331 332 322 314 314 313 320 316 323 334 337 336 336 335 335 336 337 336 331 326 323 319 313 309 309 307 306 296 289 288 286 283 282 280 279 284 287 289
322 323 333 334 331 332 329 325 329 318 315 314 317 319 322 329 329 331 332 332 332 332 332 332 334 333 328 321 320 312 309 314 319 312 299 298 298 293 291 291 288 292 295 305
330 317 327 328 330 331 325 327 321 319 314 311 312 311 309 320 320 324 324 327 328 326 327 328 335 331 328 323 318 319 310 313 317 331 324 315 309 310 307 309 309 302 305 309
331 323 321 323 322 318 318 316 318 317 311 309 309 311 324 324 325 323 325 325 325 326 325 323 326 332 331 328 321 319 314 310 313 320 328 336 329 329 333 332 326 318 316 335
333 324 315 317 321 324 319 317 317 312 312 309 307 301 312 320 325 322 321 322 321 321 322 322 322 323 325 326 324 316 316 315 309 306 313 325 317 323 328 328 326 338 335 343
331 324 317 317 325 327 323 323 321 317 311 303 302 301 318 310 307 314 313 317 318 317 316 318 320 319 318 319 319 322 315 316 323 316 322 325 305 309 308 313 313 322 334 320
328 317 311 308 309 311 307 306 307 305 301 301 291 299 299 303 303 305 308 313 315 317 315 314 314 316 317 314 314 320 318 319 313 297 332 319 329 323 317 312 318 308 324 328
325 313 311 307 308 308 305 304 305 301 298 294 297 297 301 301 303 305 309 313 314 317 317 316 314 312 313 311 311 319 319 319 318 320 314 326 326 335 326 343 331 334 327 4
323 314 314 307 310 307 304 304 303 300 298 294 295 297 301 306 308 308 311 314 314 315 316 316 316 315 313 309 302 308 314 320 320 327 332 331 344 350 357 5 7 4 333 344
317 316 314 307 313 311 306 311 309 307 304 304 302 305 310 309 309 310 313 315 316 316 315 315 316 317 316 313 304 305 303 310 313 320 347 343 346 335 347 2 347 338 338 335
318 318 315 312 315 307 314 320 314 308 305 308 308 307 309 308 311 313 315 317 316 318 318 317 317 318 319 321 320 311 308 309 316 315 329 336 352 3 348 2 353 358 359 355
321 321 319 316 312 311 313 317 317 318 311 315 311 309 311 308 309 310 318 319 320 322 318 317 318 319 320 326 324 318 312 310 317 328 327 336 342 338 348 346 1 358 357 359
339 327 323 322 318 315 322 325 324 320 309 311 306 309 316 316 309 309 312 315 318 321 319 318 320 323 324 328 329 325 317 314 317 331 340 346 349 357 359 356 359 355 353 353
339 337 328 327 327 333 333 320 320 311 312 323 319 315 313 308 310 306 309 308 314 319 319 321 324 327 331 336 332 320 317 311 322 342 347 353 359 358 355 2 352 356 359 1
341 342 338 343 335 333 346 346 322 304 316 322 316 310 303 302 304 306 307 309 311 313 317 321 324 328 335 342 332 320 310 323 339 349 348 352 354 349 357 2 5 4 6 3
344 340 333 322 317 315 320 311 307 308 297 270 271 266 307 304 302 303 302 305 307 311 315 321 324 329 335 341 340 324 307 324 344 349 350 3 -0 6 5 4 8 5 4 4
343 329 307 304 307 297 299 297 298 303 300 300 301 305 310 290 275 312 305 304 304 309 314 316 326 330 336 347 347 325 313 336 346 353 1 3 1 6 12 10 5 3 2 2
327 331 323 307 308 312 309 306 303 301 297 295 295 296 298 304 309 316 326 311 308 310 315 321 327 336 344 354 351 321 321 349 358 356 9 9 11 17 10 8 8 10 12 6
3 349 335 316 322 318 314 317 311 303 289 287 289 289 295 302 307 316 327 323 312 313 319 324 328 339 350 360 352 326 333 354 4 10 3 1 9 9 10 8 11 15 15 12